Погода в Водле

Россия / Республика Карелия     62°04′10″N   37°27′20″E
темп.,
°C
ветер,
м/с
пор.,
м/с
влажн.,
%
обл.,
%
осадки,
мм/ч
давл.,
гПа
погр.,
м
13 мая, чт
чт1300:00+13ююв22670 0.0 102212
03:00+12ююв22760 0.0 102115
06:00+15ююв24723 0.0 1020119
09:00+20ююв355142 0.0 1019496
12:00+25ююв36399 0.0 10182370
15:00+23ююв374986 0.0 1017701
18:00+19юв236378 0.0 101648
21:00+16ююв22783 0.2 101543
14 мая, пт
пт1400:00+14в22880 0.0 101325
03:00+13юв31195100 0.6 1012291
06:00+14юв2592100 0.3 1011266
09:00+14юз51082100 0.5 1013854
12:00+19юз475131 0.1 10131913
15:00+20зюз574114 0.1 10142054
18:00+19зюз37479 0.0 10131688
21:00+14ююв1164100 0.0 101411
15 мая, сб
сб1500:00+12ююз227714 0.0 101431
03:00+11юв1181100 0.0 101310
06:00+12вюв2678100 0.0 1013199
09:00+17вюв3658100 0.0 1012632
12:00+14в388494 0.2 1011393
15:00+18вюв3673100 0.3 1008872
18:00+19в3675100 0.5 1005748
21:00+16вюв1292100 1.6 100318
16 мая, вс
вс1600:00+14ю2297100 1.8 100243
03:00+13ююз2698100 4.7 1002187
06:00+13зюз3897100 0.8 1003374
09:00+12юз3894100 1.0 1005634
12:00+12юз4996100 0.1 1007502
15:00+13зюз4891100 0.2 1009727
18:00+14з388598 0.1 1010789
21:00+12зюз1394100 0.1 101283
17 мая, пн
пн1700:00+12юз249298 0.0 1013109
03:00+9юз269390 0.0 1014124
06:00+10юз268716 0.0 1015189
09:00+15зюз24646 0.0 1016648
12:00+19юз235075 0.0 10161370
15:00+21ююз23400 0.0 10151626
18:00+20ю13429 0.0 10151496
21:00+15вюв3669100 0.0 101594